Weather History for Washington, DC

Change the Weather History Date:

Saturday, March 13, 1993

  Actual Average Record
Temperature  
Mean Temperature 30 °F 46 °F  
Max Temperature 35 °F 55 °F 87 °F (1990)
Min Temperature 26 °F 37 °F 14 °F (1896)
Degree Days  
Heating Degree Days 34 19  
Month to date heating degree days 275  
Since 1 July heating degree days 3383  
Cooling Degree Days 0 0  
Month to date cooling degree days 0  
Year to date cooling degree days 0  
Moisture  
Dew Point 31 °F    
Average Humidity 96    
Maximum Humidity 100    
Minimum Humidity 84    
Precipitation  
Precipitation 2.29 in 0.11 in 2.29 in (1993)
Month to date precipitation 1.30  
Year to date precipitation 6.73  
Snow  
Snow 0.00 in 0.00 in 6.50 in (1993)
Month to date snowfall 0.9  
Since 1 July snowfall 15.0  
Snow Depth 5.00 in    
Sea Level Pressure  
Sea Level Pressure 29.21 in    
Wind  
Wind Speed 16 mph (NNE)    
Max Wind Speed 36 mph    
Max Gust Speed 45 mph    
Visibility 3 miles    
Events Fog , Rain , Snow , Thunderstorm    
T = Trace of Precipitation, MM = Missing Value Source: NWS Daily Summary

Daily Weather History Graph

Daily Weather History Graph

Search for Another Location

Airport:

Trip Planner

Search our weather history database for the weather conditions in past years. The results will help you decide how hot, cold, wet, or windy it might be!

Date:

Astronomy

Mar. 13, 1993 Rise Set
Actual Time 6:22 AM EST 6:13 PM EST
Civil Twilight 5:55 AM EST 6:39 PM EST
Nautical Twilight 5:25 AM EST 7:10 PM EST
Astronomical Twilight 4:53 AM EST 7:42 PM EST
Moon No Moon Rise 9:32 AM EST (3/13)
Length of Visible Light 12h 43m
Length of Day
11h 50m
Waning Gibbous, 65% of the Moon is Illuminated
Mar 13
Waning Gibbous
Mar 14
Last Quarter
Mar 23
New
Mar 30
First Quarter
Apr 6
Full

Hourly Weather History & Observations

Time (EST) Temp. Windchill Dew Point Humidity Pressure Visibility Wind Dir Wind Speed Gust Speed Precip Events Conditions
12:00 AM 33.1 °F 27.7 °F 33.1 °F 100% 30.12 in 2.8 mi SSE 5.8 mph - 0.02 in Fog , Snow Light Snow
12:22 AM - - - N/A% 30.12 in 0.8 mi East 6.9 mph - N/A Fog Unknown
1:00 AM 33.1 °F 26.9 °F 33.1 °F 100% 30.11 in 0.8 mi ESE 6.9 mph - 0.05 in Fog , Snow Light Snow
1:13 AM - - - N/A% 30.10 in 2.8 mi East 8.1 mph - N/A Fog Unknown
2:00 AM 33.1 °F 26.9 °F 33.1 °F 100% 30.08 in 1.0 mi NE 6.9 mph - 0.03 in Fog , Snow Light Snow
3:00 AM 32.0 °F 23.0 °F 32.0 °F 100% 30.01 in 0.5 mi NE 11.5 mph - 0.04 in Fog , Snow Light Snow
3:07 AM - - - N/A% 29.98 in 5.5 mi ENE 11.5 mph - N/A Fog Unknown
3:26 AM - - - N/A% 29.95 in 1.0 mi NE 12.7 mph - N/A Fog Unknown
4:00 AM 32.0 °F 24.2 °F 32.0 °F 100% 29.93 in 0.6 mi ENE 9.2 mph - 0.04 in Fog , Snow Light Snow
4:05 AM - - - N/A% 29.92 in 0.5 mi ENE 11.5 mph - N/A Fog Unknown
4:33 AM - - - N/A% 0.00 in 6.0 mi North - - N/A   Overcast
5:00 AM 32.0 °F 22.5 °F 32.0 °F 100% 29.88 in 0.2 mi NE 12.7 mph - 0.07 in Fog , Snow Snow
5:32 AM - - - N/A% 29.83 in 0.5 mi NE 15.0 mph - N/A Fog Unknown
6:00 AM 32.0 °F 21.2 °F 32.0 °F 100% 29.80 in 0.5 mi NE 16.1 mph - 0.06 in Fog , Snow Light Snow
6:12 AM - - - N/A% 29.80 in 0.2 mi NE 13.8 mph - N/A Fog Unknown
7:00 AM 30.9 °F 19.4 °F 30.9 °F 100% 29.72 in 0.2 mi NE 17.3 mph - 0.07 in Fog , Snow Snow
7:16 AM - - - N/A% 29.71 in 0.2 mi NNE 18.4 mph - N/A Fog Unknown
7:25 AM - - - N/A% 29.72 in 1.0 mi NNE 13.8 mph - N/A Fog Unknown
7:33 AM - - - N/A% 29.71 in 0.2 mi NE 15.0 mph - N/A Fog Unknown
8:00 AM 32.0 °F 20.5 °F 32.0 °F 100% 29.65 in 0.2 mi NE 18.4 mph - 0.10 in Fog , Snow Snow
9:00 AM 33.1 °F 20.9 °F 33.1 °F 100% 29.56 in 0.4 mi NE 21.9 mph - 0.14 in Fog , Snow Snow
9:08 AM - - - N/A% 29.53 in 0.2 mi NE 23.0 mph - N/A Fog Unknown
10:00 AM 33.1 °F 19.6 °F 33.1 °F 100% 29.40 in 0.4 mi NE 27.6 mph 33.4 mph 0.16 in Fog , Snow Light Snow
10:26 AM - - - N/A% 29.30 in 0.4 mi NNE 29.9 mph 39.1 mph N/A Fog Light Ice Pellet Showers
11:00 AM 32.0 °F 16.5 °F 32.0 °F 100% 29.17 in 1.0 mi NNE 35.7 mph 44.9 mph 0.36 in Fog , Snow Light Snow
11:05 AM - - - N/A% 29.15 in 0.8 mi NE 29.9 mph 36.8 mph N/A Fog Light Ice Pellet Showers
11:18 AM - - - N/A% 29.15 in 0.5 mi NE 26.5 mph 39.1 mph N/A Fog Light Ice Pellet Showers
11:33 AM - - - N/A% 29.15 in 0.5 mi NNE 25.3 mph 35.7 mph N/A Fog , Thunderstorm Light Ice Pellet Showers
12:00 PM 32.0 °F 19.5 °F 32.0 °F 100% 29.13 in 0.5 mi NE 21.9 mph 28.8 mph 0.26 in Fog , Snow Light Snow
12:28 PM - - - N/A% 29.05 in 5.5 mi NNE 23.0 mph - N/A Fog , Thunderstorm Light Ice Pellet Showers
1:00 PM 33.1 °F 20.6 °F 33.1 °F 100% 28.97 in 3.0 mi NE 23.0 mph - 0.23 in Fog , Snow Light Snow
1:41 PM - - - N/A% 28.86 in 4.0 mi NE 23.0 mph - N/A Fog , Rain Light Rain
2:00 PM 34.0 °F 21.5 °F 33.1 °F 96% 28.82 in 3.0 mi NNE 24.2 mph - 0.17 in Fog , Rain Light Rain
2:09 PM - - - N/A% 28.77 in 7.0 mi NNE 24.2 mph 29.9 mph N/A Rain Light Rain
3:00 PM 34.0 °F 21.8 °F 33.1 °F 96% 28.71 in 3.0 mi NNE 23.0 mph 34.5 mph 0.11 in Fog , Rain Light Rain
4:00 PM 35.1 °F 22.0 °F 33.1 °F 92% 28.65 in 6.0 mi NNE 28.8 mph 38.0 mph 0.11 in Fog , Rain Light Rain
4:07 PM - - - N/A% 28.65 in 10.5 mi NNE 21.9 mph 28.8 mph N/A Fog , Rain Light Rain
4:22 PM - - - N/A% 28.66 in 3.0 mi North 18.4 mph - N/A Fog , Rain Rain
4:41 PM - - - N/A% 28.62 in 10.5 mi North 20.7 mph - N/A Fog , Rain Light Rain
5:00 PM 34.0 °F 22.4 °F 33.1 °F 96% 28.58 in 5.5 mi North 20.7 mph - 0.18 in Fog , Rain , Snow Light Rain
5:42 PM - - - N/A% 28.55 in 6.0 mi North 20.7 mph - N/A Fog Unknown
6:00 PM 33.1 °F 21.5 °F 30.9 °F 92% 28.54 in 8.0 mi NNW 19.6 mph 26.5 mph 0.05 in   Overcast
7:00 PM 30.0 °F 18.3 °F 27.0 °F 88% 28.57 in 7.0 mi NNW 17.3 mph 24.2 mph N/A Snow Snow Grains
7:11 PM - - - N/A% 28.60 in 5.5 mi NNW 17.3 mph 25.3 mph N/A Fog Unknown
7:29 PM - - - N/A% 28.62 in 0.8 mi NW 21.9 mph 27.6 mph N/A Fog Unknown
8:00 PM 28.0 °F 13.6 °F 26.1 °F 92% 28.62 in 0.8 mi NW 24.2 mph 29.9 mph 0.02 in Fog , Snow Light Snow
8:03 PM - - - N/A% 28.63 in 0.3 mi WNW 24.2 mph 35.7 mph N/A Fog Unknown
8:21 PM - - - N/A% 28.65 in 0.5 mi NW 32.2 mph 41.4 mph N/A Fog Unknown
8:40 PM - - - N/A% 28.67 in 2.8 mi WNW 18.4 mph 36.8 mph N/A Fog Unknown
9:00 PM 26.1 °F 10.7 °F 24.1 °F 92% 28.68 in 2.8 mi NW 25.3 mph 40.3 mph 0.02 in Fog , Snow Light Snow
9:04 PM - - - N/A% 28.68 in 3.0 mi NW 25.3 mph 34.5 mph N/A Fog Unknown
9:34 PM - - - N/A% 28.71 in 5.8 mi WNW 26.5 mph 36.8 mph N/A Fog Unknown
10:00 PM 26.1 °F 10.4 °F 21.9 °F 84% 28.74 in 5.8 mi NW 26.5 mph 32.2 mph 0.01 in Fog , Snow Light Snow
10:15 PM - - - N/A% 28.75 in 5.5 mi WNW 23.0 mph 33.4 mph N/A Fog Unknown
11:00 PM 26.1 °F 11.3 °F 21.9 °F 84% 28.79 in 5.5 mi NW 23.0 mph 33.4 mph 0.01 in Fog , Snow Light Snow
11:10 PM - - - N/A% 28.82 in 0.8 mi WNW 21.9 mph 31.1 mph N/A Fog Unknown
11:31 PM - - - N/A% 28.85 in 5.5 mi WNW 23.0 mph 38.0 mph N/A Fog Unknown